Weather History for KCKC - October, 2011

Change the Weather History Date:

Wednesday, October 26, 2011

  Actual Average Record
Temperature  
Mean Temperature 34 °F -  
Max Temperature 41 °F 41 °F 57 °F (2000)
Min Temperature 26 °F 29 °F 12 °F (1997)
Degree Days  
Heating Degree Days 30    
Moisture  
Dew Point 26 °F    
Average Humidity 74    
Maximum Humidity 93    
Minimum Humidity 53    
Precipitation  
Precipitation 0.00 in - - ()
Sea Level Pressure  
Sea Level Pressure 30.02 in    
Wind  
Wind Speed 3 mph (NW)    
Max Wind Speed 14 mph    
Max Gust Speed 20 mph    
Visibility 10 miles    
Events      
Averages and records for this station are not official NWS values.
T = Trace of Precipitation, MM = Missing Value Source: NWS Daily Summary

Daily Weather History Graph

Daily Weather History Graph

Search for Another Location

Airport or City:

Trip Planner

Search our weather history database for the weather conditions in past years. The results will help you decide how hot, cold, wet, or windy it might be!

Date:

Astronomy

Oct. 26, 2011 Rise Set
Actual Time 7:36 AM CDT 5:53 PM CDT
Civil Twilight 7:04 AM CDT 6:25 PM CDT
Nautical Twilight 6:28 AM CDT 7:01 PM CDT
Astronomical Twilight 5:52 AM CDT 7:37 PM CDT
Moon 7:28 AM CDT (10/26) 5:30 PM CDT (10/26)
Length of Visible Light 11h 20m
Length of Day
10h 17m
Waning Crescent, 0% of the Moon is Illuminated
Oct 26
Waning Crescent
Oct 26
New
Nov 2
First Quarter
Nov 10
Full
Nov 18
Last Quarter

Hourly Weather History & Observations

Time (CDT) Temp. Windchill Dew Point Humidity Pressure Visibility Wind Dir Wind Speed Gust Speed Precip Events Conditions
12:13 AM 28.4 °F - 24.8 °F 86% 30.02 in 10.0 mi Calm Calm - N/A   Mostly Cloudy
12:33 AM 28.4 °F - 26.6 °F 93% 30.02 in 10.0 mi Calm Calm - N/A   Mostly Cloudy
12:53 AM 28.4 °F - 26.6 °F 93% 30.03 in 10.0 mi Calm Calm - N/A   Overcast
1:13 AM 28.4 °F - 24.8 °F 86% 30.03 in 10.0 mi Calm Calm - N/A   Overcast
1:34 AM 28.4 °F 24.6 °F 24.8 °F 86% 30.02 in 10.0 mi NNW 3.5 mph - N/A   Mostly Cloudy
1:53 AM 28.4 °F 24.6 °F 26.6 °F 93% 30.02 in 10.0 mi WNW 3.5 mph - N/A   Overcast
2:13 AM 28.4 °F - 24.8 °F 86% 30.02 in 10.0 mi Calm Calm - N/A   Scattered Clouds
2:33 AM 30.2 °F 26.7 °F 26.6 °F 86% 30.02 in 10.0 mi SSW 3.5 mph - N/A   Mostly Cloudy
2:53 AM 28.4 °F - 26.6 °F 93% 30.02 in 10.0 mi Calm Calm - N/A   Mostly Cloudy
3:13 AM 30.2 °F - 26.6 °F 86% 30.01 in 10.0 mi Calm Calm - N/A   Scattered Clouds
3:34 AM 28.4 °F - 26.6 °F 93% 30.01 in 10.0 mi Calm Calm - N/A   Mostly Cloudy
3:53 AM 30.2 °F 26.7 °F 26.6 °F 86% 30.02 in 10.0 mi NW 3.5 mph - N/A   Scattered Clouds
4:13 AM 32.0 °F - 26.6 °F 80% 30.02 in 10.0 mi Calm Calm - N/A   Mostly Cloudy
4:34 AM 33.8 °F - 28.4 °F 81% 30.02 in 10.0 mi Calm Calm - N/A   Mostly Cloudy
4:53 AM 30.2 °F - 26.6 °F 86% 30.02 in 10.0 mi Calm Calm - N/A   Scattered Clouds
5:13 AM 33.8 °F - 28.4 °F 81% 30.02 in 10.0 mi Calm Calm - N/A   Scattered Clouds
5:33 AM 30.2 °F - 26.6 °F 86% 30.02 in 10.0 mi Calm Calm - N/A   Scattered Clouds
5:53 AM 32.0 °F - 28.4 °F 87% 30.01 in 10.0 mi Calm Calm - N/A   Scattered Clouds
6:13 AM 32.0 °F 28.7 °F 26.6 °F 80% 30.02 in 10.0 mi West 3.5 mph - N/A   Mostly Cloudy
6:33 AM 33.8 °F - 28.4 °F 81% 30.02 in 10.0 mi Calm Calm - N/A   Overcast
6:53 AM 33.8 °F 30.8 °F 28.4 °F 81% 30.02 in 10.0 mi West 3.5 mph - N/A   Overcast
7:13 AM 33.8 °F - 28.4 °F 81% 30.01 in 10.0 mi Calm Calm - N/A   Overcast
7:33 AM 32.0 °F 28.7 °F 28.4 °F 87% 30.02 in 10.0 mi West 3.5 mph - N/A   Overcast
7:53 AM 30.2 °F 26.7 °F 26.6 °F 86% 30.02 in 10.0 mi West 3.5 mph - N/A   Scattered Clouds
8:14 AM 30.2 °F 25.4 °F 26.6 °F 86% 30.02 in 10.0 mi WNW 4.6 mph - N/A   Clear
8:33 AM 33.8 °F 29.6 °F 28.4 °F 81% 30.03 in 10.0 mi WNW 4.6 mph - N/A   Scattered Clouds
8:53 AM 35.6 °F 29.2 °F 30.2 °F 81% 30.03 in 10.0 mi NW 8.1 mph - N/A   Drizzle
9:13 AM 35.6 °F 29.9 °F 30.2 °F 81% 30.02 in 10.0 mi NNW 6.9 mph - N/A   Mostly Cloudy
9:34 AM 37.4 °F 32.1 °F 30.2 °F 75% 30.02 in 10.0 mi NW 6.9 mph - N/A   Mostly Cloudy
9:53 AM 37.4 °F 32.1 °F 30.2 °F 75% 30.01 in 10.0 mi NNW 6.9 mph - N/A   Mostly Cloudy
10:13 AM 39.2 °F 34.2 °F 30.2 °F 70% 30.01 in 10.0 mi NW 6.9 mph - N/A   Scattered Clouds
10:53 AM 39.2 °F 32.5 °F 30.2 °F 70% 30.01 in 10.0 mi NW 10.4 mph 16.1 mph N/A   Scattered Clouds
11:14 AM 39.2 °F 33.6 °F 28.4 °F 65% 30.01 in 10.0 mi WNW 8.1 mph - N/A   Mostly Cloudy
11:33 AM 39.2 °F 33.0 °F 28.4 °F 65% 30.02 in 10.0 mi NW 9.2 mph - N/A   Mostly Cloudy
11:53 AM 41.0 °F 34.7 °F 28.4 °F 61% 30.02 in 10.0 mi WNW 10.4 mph 18.4 mph N/A   Scattered Clouds
12:13 PM 39.2 °F 33.0 °F 26.6 °F 61% 30.03 in 10.0 mi NW 9.2 mph - N/A   Mostly Cloudy
12:33 PM 37.4 °F 30.8 °F 24.8 °F 60% 30.03 in 10.0 mi NW 9.2 mph 17.3 mph N/A   Mostly Cloudy
12:54 PM 39.2 °F 31.2 °F 24.8 °F 56% 30.03 in 10.0 mi NW 13.8 mph 18.4 mph N/A   Mostly Cloudy
1:13 PM 37.4 °F 29.3 °F 24.8 °F 60% 30.02 in 10.0 mi WNW 12.7 mph 17.3 mph N/A   Mostly Cloudy
1:33 PM 39.2 °F 31.2 °F 24.8 °F 56% 30.02 in 10.0 mi NW 13.8 mph 19.6 mph N/A   Mostly Cloudy
2:13 PM 37.4 °F 31.4 °F 26.6 °F 65% 30.02 in 10.0 mi NW 8.1 mph - N/A   Overcast
2:33 PM 39.2 °F 33.0 °F 26.6 °F 61% 30.02 in 10.0 mi NNW 9.2 mph - N/A   Overcast
2:54 PM 41.0 °F 35.2 °F 24.8 °F 53% 30.01 in 10.0 mi NW 9.2 mph - N/A   Overcast
3:13 PM 37.4 °F 29.8 °F 24.8 °F 60% 30.01 in 10.0 mi NNW 11.5 mph - N/A   Overcast
3:34 PM 39.2 °F 32.0 °F 24.8 °F 56% 30.01 in 10.0 mi NW 11.5 mph 18.4 mph N/A   Mostly Cloudy
3:53 PM 37.4 °F 30.8 °F 24.8 °F 60% 30.00 in 10.0 mi NNW 9.2 mph - N/A   Mostly Cloudy
4:13 PM 37.4 °F 30.3 °F 24.8 °F 60% 30.00 in 10.0 mi NNW 10.4 mph - N/A   Mostly Cloudy
4:26 PM 37.4 °F 32.8 °F 26.6 °F 65% 30.01 in 10.0 mi NNW 5.8 mph 16.1 mph N/A   Overcast
5:13 PM 37.4 °F 32.8 °F 24.8 °F 60% 30.00 in 10.0 mi WNW 5.8 mph - N/A   Overcast
5:33 PM 35.6 °F 30.7 °F 26.6 °F 70% 30.00 in 10.0 mi NNW 5.8 mph - N/A   Overcast
5:54 PM 35.6 °F 31.7 °F 24.8 °F 65% 30.00 in 10.0 mi NNW 4.6 mph - N/A   Overcast
6:13 PM 35.6 °F 30.7 °F 24.8 °F 65% 30.00 in 10.0 mi NW 5.8 mph - N/A   Overcast
6:33 PM 35.6 °F 30.7 °F 24.8 °F 65% 30.01 in 10.0 mi NNW 5.8 mph - N/A   Overcast
7:34 PM 33.8 °F 29.6 °F 21.2 °F 60% 30.01 in 10.0 mi NNW 4.6 mph - N/A   Mostly Cloudy
7:53 PM 33.8 °F - 21.2 °F 60% 30.01 in 10.0 mi Calm Calm - N/A   Mostly Cloudy
8:14 PM 33.8 °F 29.6 °F 21.2 °F 60% 30.01 in 10.0 mi NNW 4.6 mph - N/A   Overcast
8:33 PM 32.0 °F 28.7 °F 21.2 °F 64% 30.01 in 10.0 mi NNW 3.5 mph - N/A   Mostly Cloudy
8:54 PM 30.2 °F - 21.2 °F 69% 30.01 in 10.0 mi Calm Calm - N/A   Scattered Clouds
9:13 PM 30.2 °F - 21.2 °F 69% 30.01 in 10.0 mi Calm Calm - N/A   Clear
9:33 PM 26.6 °F 22.6 °F 21.2 °F 80% 30.01 in 10.0 mi NNW 3.5 mph - N/A   Clear
9:54 PM 28.4 °F 24.6 °F 21.2 °F 74% 30.01 in 10.0 mi NNW 3.5 mph - N/A   Clear
10:33 PM 26.6 °F 22.6 °F 21.2 °F 80% 30.00 in 10.0 mi NNW 3.5 mph - N/A   Scattered Clouds
11:13 PM 26.6 °F - 21.2 °F 80% 30.01 in 10.0 mi Calm Calm - N/A   Scattered Clouds
11:34 PM 28.4 °F - 21.2 °F 74% 30.01 in 10.0 mi Calm Calm - N/A   Clear
11:53 PM 24.8 °F - 19.4 °F 80% 30.01 in 10.0 mi Calm Calm - N/A   Clear